Weili Kongjian 01-04

operational
NORAD ID: 62579 Int'l Des: 2025-007 Owner: CENTI Country: CN
LEOCIRCULAR

Über Weili Kongjian 01-04

Beschreibung wird geladen...

Live-Position

3D-Globus wird geladen...

Nächste Überflüge

Höhenverlauf

Altitude vs Time

uPlot chart will show altitude changes over time

Zweizeiliger Elementsatz

1 62579U 25007E 26062.44725262 -.00000020 00000-0 10646-3 0 9994
2 62579 54.9819 301.4283 0006619 272.6785 87.3416 13.85717813 60129
Epoch: 3. März 2026 • Age: 26 hours

Aktueller Status

Höhe 956.0 km
Geschwindigkeit 7.38 km/s
Subsatellitenpunkt -47.54°S, 19.36°W
Startdatum 13. Jan. 2025
Alter 1.1 years
Typ other

Technische Details

Klassifizierung Payload
Masse 140.00 kg
Trockenmasse 140.00 kg
Gesamtmasse 140.00 kg
Länge 1.00 m
Durchmesser 0.50 m
Spannweite 2.00 m
Form Box + 2 pan
Hersteller DFHS
Bus-Typ WK01
Phasenstatus In Orbit
Besitzer/Staat CENTI/CN

Große Konstellationen

Loading constellations...